Weather History for Oakland, CA

Change the Weather History Date:

Tuesday, May 14, 2013

  Actual Average Record
Temperature  
Mean Temperature 61 °F 59 °F  
Max Temperature 67 °F 67 °F 90 °F (2014)
Min Temperature 54 °F 51 °F 42 °F (1955)
Degree Days  
Heating Degree Days 4 6  
Month to date heating degree days 27 87  
Since 1 July heating degree days 2295 2673  
Cooling Degree Days 0 0  
Month to date cooling degree days 26 0  
Year to date cooling degree days 39 6  
Growing Degree Days 10 (Base 50)    
Moisture  
Dew Point 54 °F    
Average Humidity 80    
Maximum Humidity 100    
Minimum Humidity 60    
Precipitation  
Precipitation 0.00 in 0.03 in 0.31 in (1949)
Month to date precipitation T 0.43  
Year to date precipitation 2.63 12.79  
Since 1 July precipitation 13.62 20.38  
Sea Level Pressure  
Sea Level Pressure 30.00 in    
Wind  
Wind Speed 11 mph (WSW)    
Max Wind Speed 23 mph    
Max Gust Speed 30 mph    
Visibility 10 miles    
Events      
T = Trace of Precipitation, MM = Missing Value Source: NWS Daily Summary

Daily Weather History Graph

Daily Weather History Graph

Search for Another Location

Airport:

Trip Planner

Search our weather history database for the weather conditions in past years. The results will help you decide how hot, cold, wet, or windy it might be!

Date:

Astronomy

May. 14, 2013 Rise Set
Actual Time 5:59 AM PDT 8:11 PM PDT
Civil Twilight 5:30 AM PDT 8:40 PM PDT
Nautical Twilight 4:54 AM PDT 9:16 PM PDT
Astronomical Twilight 4:15 AM PDT 9:55 PM PDT
Moon 9:44 AM PDT (5/14) No Moon Set
Length of Visible Light 15h 10m
Length of Day
14h 11m
Waxing Crescent, 19% of the Moon is Illuminated
May 14
Waxing Crescent
May 17
First Quarter
May 24
Full
May 31
Last Quarter
Jun 8
New

Hourly Weather History & Observations

Time (PDT) Temp. Dew Point Humidity Pressure Visibility Wind Dir Wind Speed Gust Speed Precip Events Conditions
12:53 AM 55.9 °F 55.9 °F 100% 29.98 in 10.0 mi Calm Calm - N/A   Clear
1:53 AM 57.0 °F 55.9 °F 96% 29.98 in 10.0 mi West 10.4 mph - N/A   Scattered Clouds
2:53 AM 55.9 °F 55.0 °F 97% 29.97 in 10.0 mi South 5.8 mph - N/A   Scattered Clouds
3:47 AM 57.2 °F 57.2 °F 100% 29.97 in 10.0 mi WSW 6.9 mph - N/A   Mostly Cloudy
3:53 AM 55.9 °F 55.9 °F 100% 29.97 in 10.0 mi SW 9.2 mph - N/A   Overcast
4:53 AM 55.9 °F 55.9 °F 100% 29.98 in 10.0 mi West 6.9 mph - N/A   Overcast
5:53 AM 55.9 °F 55.9 °F 100% 29.97 in 7.0 mi SSW 15.0 mph - N/A   Overcast
6:40 AM 55.4 °F 55.4 °F 100% 29.98 in 6.0 mi SSW 9.2 mph - N/A   Scattered Clouds
6:53 AM 57.0 °F 55.9 °F 96% 29.99 in 6.0 mi SSW 9.2 mph - N/A   Mostly Cloudy
7:29 AM 57.2 °F 55.4 °F 94% 29.98 in 10.0 mi Calm Calm - N/A   Scattered Clouds
7:53 AM 57.9 °F 55.9 °F 93% 29.99 in 10.0 mi SSW 5.8 mph - N/A   Partly Cloudy
8:53 AM 61.0 °F 55.9 °F 83% 30.00 in 10.0 mi South 11.5 mph - N/A   Mostly Cloudy
9:36 AM 60.8 °F 55.4 °F 82% 30.00 in 10.0 mi SW 11.5 mph - N/A   Scattered Clouds
9:53 AM 61.0 °F 55.9 °F 83% 30.00 in 10.0 mi SW 12.7 mph - N/A   Partly Cloudy
10:53 AM 62.1 °F 55.0 °F 78% 30.01 in 10.0 mi SW 11.5 mph - N/A   Partly Cloudy
11:53 AM 64.0 °F 54.0 °F 70% 30.01 in 10.0 mi WSW 15.0 mph - N/A   Clear
12:53 PM 64.0 °F 55.0 °F 73% 30.01 in 10.0 mi WSW 15.0 mph - N/A   Clear
1:53 PM 66.9 °F 54.0 °F 63% 30.00 in 10.0 mi West 13.8 mph 19.6 mph N/A   Clear
2:53 PM 64.9 °F 51.1 °F 61% 30.00 in 10.0 mi West 13.8 mph - N/A   Clear
3:53 PM 64.0 °F 50.0 °F 60% 29.99 in 10.0 mi West 15.0 mph - N/A   Partly Cloudy
4:53 PM 64.0 °F 50.0 °F 60% 29.99 in 10.0 mi WSW 11.5 mph - N/A   Partly Cloudy
5:53 PM 63.0 °F 48.9 °F 60% 29.99 in 10.0 mi West 6.9 mph - N/A   Partly Cloudy
6:53 PM 61.0 °F 50.0 °F 67% 29.99 in 10.0 mi West 13.8 mph - N/A   Partly Cloudy
7:53 PM 59.0 °F 51.1 °F 75% 30.00 in 10.0 mi West 17.3 mph - N/A   Scattered Clouds
8:53 PM 57.9 °F 51.1 °F 78% 30.01 in 10.0 mi West 12.7 mph - N/A   Partly Cloudy
9:53 PM 57.0 °F 51.1 °F 81% 30.04 in 10.0 mi West 6.9 mph - N/A   Clear
10:53 PM 57.0 °F 51.1 °F 81% 30.05 in 10.0 mi West 10.4 mph - N/A   Partly Cloudy
11:53 PM 55.9 °F 52.0 °F 87% 30.05 in 10.0 mi SW 10.4 mph - N/A   Partly Cloudy